Brainerd, MN

1:48 AM CDT on June 25, 2017 (GMT -0500)
Brainerd-Crow Wing County Regional

Weather History for KBRD - January, 2014

Change the Weather History Date:

Sunday, January 12, 2014

  Actual Average Record
Temperature  
Mean Temperature 32 °F -  
Max Temperature 42 °F 16 °F 48 °F (1986)
Min Temperature 26 °F -7 °F -39 °F (1977)
Degree Days  
Heating Degree Days 34    
Moisture  
Dew Point 24 °F    
Average Humidity 71    
Maximum Humidity 78    
Minimum Humidity 61    
Precipitation  
Precipitation 0.04 in - - ()
Sea Level Pressure  
Sea Level Pressure 29.39 in    
Wind  
Wind Speed 8 mph (SSW)    
Max Wind Speed 15 mph    
Max Gust Speed 21 mph    
Visibility 9 miles    
Events Rain    
Averages and records for this station are not official NWS values.
T = Trace of Precipitation, MM = Missing Value Source: NWS Daily Summary

Daily Weather History Graph

Daily Weather History Graph

Search for Another Location

Airport or City:

Trip Planner

Search our weather history database for the weather conditions in past years. The results will help you decide how hot, cold, wet, or windy it might be!

Date:

Astronomy

Jan. 12, 2014 Rise Set
Actual Time 7:57 AM CST 4:52 PM CST
Civil Twilight 7:23 AM CST 5:26 PM CST
Nautical Twilight 6:45 AM CST 6:04 PM CST
Astronomical Twilight 6:09 AM CST 6:40 PM CST
Moon 2:22 PM CST (1/12) 4:55 AM CST (1/12)
Length of Visible Light 10h 03m
Length of Day
8h 55m
Waxing Gibbous, 90% of the Moon is Illuminated
Jan 12
Waxing Gibbous
Jan 15
Full
Jan 23
Last Quarter
Jan 30
New
Feb 6
First Quarter

Hourly Weather History & Observations

Time (CST) Temp. Windchill Dew Point Humidity Pressure Visibility Wind Dir Wind Speed Gust Speed Precip Events Conditions
12:53 AM 26.1 °F 16.8 °F 19.0 °F 75% 29.48 in 5.0 mi South 9.2 mph - N/A   Haze
1:53 AM 27.0 °F 19.5 °F 19.9 °F 75% 29.50 in 6.0 mi SSE 6.9 mph - N/A   Haze
2:53 AM 28.0 °F 20.0 °F 21.9 °F 78% 29.48 in 7.0 mi South 8.1 mph - N/A   Overcast
3:53 AM 30.0 °F 24.1 °F 23.0 °F 75% 29.44 in 8.0 mi SSE 5.8 mph - N/A   Overcast
4:53 AM 30.9 °F 25.2 °F 21.9 °F 69% 29.39 in 9.0 mi SSE 5.8 mph - N/A   Overcast
5:53 AM 32.0 °F 24.8 °F 21.9 °F 66% 29.37 in 10.0 mi SSE 8.1 mph - N/A   Scattered Clouds
6:53 AM 33.1 °F 24.9 °F 21.9 °F 64% 29.36 in 9.0 mi South 10.4 mph - 0.00 in   Overcast
7:53 AM 34.0 °F 24.2 °F 25.0 °F 70% 29.32 in 6.0 mi SSE 15.0 mph 20.7 mph 0.00 in Rain Light Freezing Rain
8:53 AM 35.1 °F 31.0 °F 26.1 °F 70% 29.35 in 8.0 mi West 4.6 mph - 0.00 in   Mostly Cloudy
9:53 AM 34.0 °F 27.2 °F 27.0 °F 75% 29.38 in 8.0 mi South 8.1 mph - N/A   Overcast
10:53 AM 36.0 °F 29.6 °F 28.0 °F 73% 29.37 in 9.0 mi SSW 8.1 mph - N/A   Mostly Cloudy
11:53 AM 37.0 °F 30.4 °F 28.0 °F 70% 29.34 in 8.0 mi South 9.2 mph - 0.03 in   Overcast
12:53 PM - - - N/A% 29.30 in 8.0 mi WSW 6.9 mph - 0.01 in   Overcast
1:53 PM - - - N/A% 29.30 in 9.0 mi SSW 6.9 mph - N/A   Clear
2:53 PM - - - N/A% 29.32 in 10.0 mi SSW 6.9 mph - N/A   Clear
3:15 PM 42.8 °F 37.5 °F 30.2 °F 61% 29.33 in 10.0 mi South 9.2 mph - N/A   Clear
3:53 PM - - - N/A% 29.34 in 10.0 mi SSW 9.2 mph - N/A   Clear
4:53 PM - - - N/A% 29.36 in 10.0 mi SSW 8.1 mph - N/A   Clear
5:53 PM - - - N/A% 29.38 in 10.0 mi SSW 9.2 mph - N/A   Clear
6:53 PM - - - N/A% 29.41 in 10.0 mi SW 9.2 mph - N/A   Clear
7:53 PM - - - N/A% 29.42 in 10.0 mi WSW 6.9 mph - N/A   Clear
8:53 PM - - - N/A% 29.42 in 10.0 mi SW 4.6 mph - N/A   Clear
9:53 PM - - - N/A% 29.45 in 10.0 mi West 5.8 mph - N/A   Clear
10:53 PM - - - N/A% 29.45 in 10.0 mi SW 5.8 mph - N/A   Clear
11:53 PM - - - N/A% 29.47 in 10.0 mi WSW 6.9 mph - N/A   Clear